Location: Banios
(43.0451°N, 0.2335°E)
Time: 13:54:52
(UTC+00:00)

Cosmos 1603 - Pass Details

Date: 25 January 2021
Orbit: 829 x 861 km, 71.0° (Epoch: 25 February)

Event Time Altitude Azimuth Distance (km) Brightness Sun altitude
Rises 06:39:59 0° 195° (SSW) 3,358 6.9 -7.8°
Reaches altitude 10° 06:42:24 10° 193° (SSW) 2,431 6.2 -7.3°
Maximum altitude 06:47:56 69° 111° (ESE) 891 4.1 -6.4°
Drops below altitude 10° 06:53:32 10° 29° (NNE) 2,463 6.2 -5.4°
Sets 06:56:00 0° 27° (NNE) 3,407 6.9 -5.0°
